ASTROCAST-0202 (48961 NORAD) Tracking and Keplerian Element Data

This shows tracking and keplerian element data for the satellite.

Feedback or suggestion? Click here.




ElementValue
Catalog48961
NameASTROCAST-0202
Epoch Orbit1389
Epoch Day268.60917728
Epoch Year2021
RAAN36.341
Inclination97.5239
Eccentricity0.0013463
Argument of Perigee297.1611
Mean Anonmoly62.8247
Mean Motion15.14524613
Decay Rate1.609E-05
L11 48961U 21059CL 21268.60917728 .00001609 00000-0 90819-4 0 9991
L22 48961 97.5239 36.3410 0013463 297.1611 62.8247 15.14524613 13898

Live tracking and technical data element details for ASTROCAST-0202 (NORAD 48961). ASTROCAST-0202 can be tracked NOW for your location showing map with azimuth and elevation plus other details from your city location.

Track the satellite on the map from your city or location and see movement details for azimuth, elevation, latitude, longitude, range, height, and movement on the map or in text.







IsCatalogInMostPopularTable: catalog: 48961, numindb: 15
Update: records affected: 1



GetName: 48961 ASTROCAST-0202

Hit Count: updated at: Sun, 26 Sep 2021 15:04:01 GMT